Caldwell, NJ

5:12 PM EDT on September 20, 2019 (GMT -0400)
Essex County

Weather History for KCDW - July, 2019

Change the Weather History Date:

Saturday, July 27, 2019

  Actual Average Record
Temperature  
Mean Temperature 79 °F -  
Max Temperature 90 °F 81 °F 98 °F (1955)
Min Temperature 68 °F 62 °F 46 °F (1977)
Cooling Degree Days 14    
Growing Degree Days 29 (Base 50)    
Moisture  
Dew Point 64 °F    
Average Humidity 62    
Maximum Humidity 90    
Minimum Humidity 36    
Precipitation  
Precipitation 0.00 in - - ()
Sea Level Pressure  
Sea Level Pressure 30.24 in    
Wind  
Wind Speed 2 mph (South)    
Max Wind Speed 8 mph    
Max Gust Speed -    
Visibility 10 miles    
Events      
Averages and records for this station are not official NWS values.
T = Trace of Precipitation, MM = Missing Value Source: NWS Daily Summary

Daily Weather History Graph

Daily Weather History Graph

Search for Another Location

Airport or City:

Astronomy

Jul. 27, 2019 Rise Set
Actual Time 5:48 AM EDT 8:18 PM EDT
Civil Twilight 5:17 AM EDT 8:49 PM EDT
Nautical Twilight 4:38 AM EDT 9:28 PM EDT
Astronomical Twilight 3:54 AM EDT 10:11 PM EDT
Moon 1:33 AM EDT (7/27) 4:06 PM EDT (7/27)
Length of Visible Light 15h 32m
Length of Day
14h 29m
Waning Crescent, 24% of the Moon is Illuminated
Jul 27
Waning Crescent
Jul 31
New
Aug 7
First Quarter
Aug 15
Full
Aug 23
Last Quarter

Hourly Weather History & Observations

Time (EDT) Temp. Heat Index Dew Point Humidity Pressure Visibility Wind Dir Wind Speed Gust Speed Precip Events Conditions
12:53 AM 73.0 °F - 64.0 °F 73% 30.28 in 10.0 mi Calm Calm - N/A   Clear
1:53 AM 71.1 °F - 64.0 °F 78% 30.28 in 10.0 mi Calm Calm - N/A   Clear
2:53 AM 69.1 °F - 64.9 °F 87% 30.28 in 10.0 mi Calm Calm - N/A   Clear
3:53 AM 69.1 °F - 64.9 °F 87% 30.27 in 10.0 mi Calm Calm - N/A   Clear
4:53 AM 68.0 °F - 64.9 °F 90% 30.28 in 10.0 mi Calm Calm - N/A   Clear
5:53 AM 68.0 °F - 64.9 °F 90% 30.30 in 10.0 mi Calm Calm - N/A   Scattered Clouds
6:53 AM 70.0 °F - 66.0 °F 87% 30.30 in 10.0 mi Calm Calm - N/A   Partly Cloudy
7:53 AM 73.0 °F - 66.9 °F 81% 30.31 in 10.0 mi East 3.5 mph - N/A   Clear
8:53 AM 77.0 °F - 64.9 °F 66% 30.31 in 10.0 mi Calm Calm - N/A   Clear
9:53 AM 81.0 °F 83.0 °F 66.0 °F 60% 30.30 in 10.0 mi Calm Calm - N/A   Clear
10:53 AM 84.0 °F 85.8 °F 64.9 °F 53% 30.30 in 10.0 mi Variable 4.6 mph - N/A   Clear
11:53 AM 86.0 °F 86.8 °F 63.0 °F 46% 30.28 in 10.0 mi WSW 5.8 mph - N/A   Clear
12:53 PM 87.1 °F 87.0 °F 61.0 °F 41% 30.25 in 10.0 mi Variable 5.8 mph - N/A   Clear
1:53 PM 88.0 °F 87.9 °F 61.0 °F 40% 30.23 in 10.0 mi SSW 4.6 mph - N/A   Partly Cloudy
2:53 PM 89.1 °F 88.8 °F 60.1 °F 38% 30.21 in 10.0 mi South 4.6 mph - N/A   Clear
3:53 PM 90.0 °F 89.7 °F 60.1 °F 37% 30.19 in 10.0 mi Variable 4.6 mph - N/A   Mostly Cloudy
4:53 PM 89.1 °F 88.8 °F 60.1 °F 38% 30.18 in 10.0 mi SW 3.5 mph - N/A   Clear
5:53 PM 89.1 °F 88.2 °F 59.0 °F 36% 30.17 in 10.0 mi Variable 3.5 mph - N/A   Clear
6:53 PM 84.0 °F 87.0 °F 68.0 °F 58% 30.17 in 10.0 mi SE 8.1 mph - N/A   Clear
7:53 PM 84.0 °F 86.3 °F 66.0 °F 55% 30.16 in 10.0 mi SSE 8.1 mph - N/A   Clear
8:53 PM 82.0 °F 83.4 °F 64.0 °F 54% 30.18 in 10.0 mi South 5.8 mph - N/A   Clear
9:53 PM 80.1 °F 81.7 °F 64.0 °F 58% 30.19 in 10.0 mi SW 3.5 mph - N/A   Clear
10:53 PM 78.1 °F - 64.0 °F 62% 30.19 in 10.0 mi Calm Calm - N/A   Clear